OK1ZXS-6 Weather Reports


Display with metric or nautical units.
time (UTC)temp
F
wind
direction
speed
MPH
gust
MPH
rain 1hr
in
rain 24hr
in
rain mn
in
humidity
%
barometer
mb
20260507153902 63 247 3.0 9.0 0.00 0.00 0.00 50
20260507152402 64 247 2.0 10.0 0.00 0.00 0.00 48
20260507150902 63 0 4.0 10.0 0.00 0.00 0.00 51
20260507145402 62 247 3.0 10.0 0.00 0.00 0.00 50
20260507143902 65 247 3.0 10.0 0.00 0.00 0.00 49
20260507142402 63 247 3.0 11.0 0.00 0.00 0.00 52
20260507140902 66 270 2.0 9.0 0.00 0.00 0.00 48
20260507135402 64 0 2.0 9.0 0.00 0.00 0.00 51
20260507133902 63 247 3.0 11.0 0.00 0.00 0.00 53
20260507132402 66 315 3.0 11.0 0.00 0.00 0.00 50
20260507130901 66 247 3.0 8.0 0.00 0.00 0.00 51
20260507125401 64 247 3.0 10.0 0.00 0.00 0.00 51
20260507123902 65 247 4.0 10.0 0.00 0.00 0.00 49
20260507122402 66 247 3.0 9.0 0.00 0.00 0.00 49
20260507120903 66 247 3.0 14.0 0.00 0.00 0.00 52
20260507115403 66 247 3.0 10.0 0.00 0.00 0.00 52
20260507113902 66 247 4.0 11.0 0.00 0.00 0.00 52
20260507112404 64 247 2.0 7.0 0.00 0.00 0.00 54
20260507110902 64 225 2.0 6.0 0.00 0.00 0.00 55
20260507105402 62 0 3.0 10.0 0.00 0.00 0.00 55
20260507103901 64 225 4.0 10.0 0.00 0.00 0.00 55
20260507102402 63 225 3.0 10.0 0.00 0.00 0.00 55
20260507100901 63 225 4.0 10.0 0.00 0.00 0.00 56
20260507095402 61 247 3.0 11.0 0.00 0.00 0.00 59
20260507093901 61 247 3.0 10.0 0.00 0.00 0.00 60
20260507092402 61 247 3.0 9.0 0.00 0.00 0.00 59
20260507090902 61 225 4.0 9.0 0.00 0.00 0.00 59
20260507085402 61 270 4.0 12.0 0.00 0.00 0.00 61
20260507082403 59 247 4.0 8.0 0.00 0.00 0.00 64
20260507080904 60 225 4.0 10.0 0.00 0.00 0.00 62
20260507075403 59 247 3.0 10.0 0.00 0.00 0.00 65
20260507073902 59 247 5.0 12.0 0.00 0.00 0.00 63
20260507072402 58 247 5.0 15.0 0.00 0.00 0.00 66
20260507070902 56 247 4.0 11.0 0.00 0.00 0.00 71
20260507065402 52 247 4.0 11.0 0.00 0.00 0.00 75
20260507063907 52 247 3.0 8.0 0.00 0.00 0.00 75
20260507062403 53 225 3.0 9.0 0.00 0.00 0.00 74
20260507060901 55 247 4.0 10.0 0.00 0.00 0.00 73
20260507055401 56 225 4.0 7.0 0.00 0.00 0.00 75
20260507053901 53 225 4.0 9.0 0.00 0.00 0.00 78
20260507052401 51 247 4.0 8.0 0.00 0.00 0.00 80
20260507050901 51 225 3.0 7.0 0.00 0.00 0.00 81
20260507045402 50 225 3.0 8.0 0.00 0.00 0.00 82
20260507043903 50 247 3.0 7.0 0.00 0.00 0.00 83
20260507042403 50 247 2.0 7.0 0.00 0.00 0.00 84
20260507040904 49 247 3.0 10.0 0.00 0.00 0.00 84
20260507035404 49 247 2.0 7.0 0.00 0.00 0.00 85
20260507033902 50 247 3.0 8.0 0.00 0.00 0.00 85
20260507032402 50 247 2.0 5.0 0.00 0.00 0.00 85
20260507030902 50 247 2.0 8.0 0.00 0.00 0.00 85
20260507025402 50 247 1.0 5.0 0.00 0.00 0.00 85
20260507023901 50 247 2.0 5.0 0.00 0.00 0.00 85
20260507022402 50 247 2.0 6.0 0.00 0.00 0.00 86
20260507020903 51 247 3.0 7.0 0.00 0.00 0.00 86
20260507015402 51 247 2.0 7.0 0.00 0.00 0.00 86
20260507013901 51 247 2.0 7.0 0.00 0.00 0.00 86
20260507012401 51 247 3.0 7.0 0.00 0.00 0.00 86
20260507010901 52 247 2.0 9.0 0.00 0.00 0.00 86
20260507005403 51 247 2.0 6.0 0.00 0.00 0.00 85
20260507003903 52 247 2.0 3.0 0.00 0.00 0.00 85
20260507002403 52 270 1.0 4.0 0.00 0.00 0.00 85
20260507000909 52 247 1.0 6.0 0.00 0.00 0.00 85
20260506235402 53 247 2.0 7.0 0.00 0.00 0.00 85
20260506233902 53 247 1.0 4.0 0.00 0.00 0.00 85
20260506232402 53 247 2.0 6.0 0.00 0.00 0.00 85
20260506230901 53 270 3.0 10.0 0.00 0.00 0.00 85
20260506225402 53 225 3.0 10.0 0.00 0.00 0.00 85
20260506223902 54 247 3.0 8.0 0.00 0.00 0.00 85
20260506222403 54 247 3.0 8.0 0.00 0.00 0.00 84
20260506220902 54 270 4.0 10.0 0.00 0.00 0.00 84
20260506215403 54 225 4.0 10.0 0.00 0.00 0.00 84
20260506213903 55 292 3.0 11.0 0.00 0.00 0.00 83
20260506212404 55 0 3.0 9.0 0.00 0.00 0.00 86
20260506210902 55 0 4.0 12.0 0.00 0.00 0.00 82
20260506205404 55 247 3.0 10.0 0.00 0.00 0.00 81
20260506203902 56 270 5.0 17.0 0.00 0.00 0.00 82
20260506202404 56 247 6.0 15.0 0.00 0.00 0.00 80
20260506200902 57 247 6.0 15.0 0.00 0.00 0.00 78
20260506193901 58 225 3.0 7.0 0.00 0.00 0.00 62
20260506192402 56 225 1.0 4.0 0.00 0.00 0.00 67
20260506190902 57 225 0.0 1.0 0.00 0.00 0.00 68
20260506183902 59 225 0.0 1.0 0.00 0.00 0.00 65
20260506182402 60 225 0.0 1.0 0.00 0.00 0.00 62
20260506180902 61 0 0.0 1.0 0.00 0.00 0.00 61
20260506175402 62 225 0.0 1.0 0.00 0.00 0.00 60
20260506173903 64 112 0.0 1.0 0.00 0.00 0.00 56
20260506172402 65 202 0.0 0.0 0.00 0.00 0.00 55
20260506170905 67 67 1.0 5.0 0.00 0.00 0.00 52
20260506165403 69 45 2.0 9.0 0.00 0.00 0.00 49
20260506163902 68 67 3.0 11.0 0.00 0.00 0.00 50
20260506162402 67 45 1.0 5.0 0.00 0.00 0.00 51
20260506160902 68 45 2.0 6.0 0.00 0.00 0.00 49
20260506155402 68 225 2.0 10.0 0.00 0.00 0.00 51